Flag for Botswana Weather past 2 weeks in Gaborone, Botswana

Now
52 °F

Clear.


Feels Like: 52 °F
Forecast: 55 / 79 °F
Wind: 2 mph from North

Location: Seretse Khama International Airport


UV Index: 5 (Moderate)

Visibility: 4 mi


Pressure: 30.15 "Hg

Humidity: 94%

Dew point: 50 °F

Location of GaboroneLocation

Historic Weather in Gaborone

°F

Gaborone temperature yesterday

Maximum temperature yesterday: 81 °F (at 2:00 PM)
Minimum temperature yesterday: 52 °F (at 7:00 AM)
Average temperature yesterday: 67 °F

Past Weeks' High & Low Weather Summary

 TemperatureHumidityPressure
High81 °F (Apr 19, 1:00 PM)100% (Apr 7, 6:00 AM)30.42 "Hg (Apr 7, 6:00 AM)
Low50 °F (Apr 18, 7:00 AM)26% (Apr 20, 4:00 PM)29.95 "Hg (Apr 13, 6:00 PM)
Average66 °F69%30.25 "Hg
* Reported Apr 6 6:00 AM — Apr 21 6:00 AM, Gaborone, Weather by CustomWeather, © 2014

Note: Actual official high and low records may vary slightly from our data, if they occured in-between our weather recording intervals... More about our weather records

Advertising

Historic Weather Conditions — Data for Previous 24 hours

 ConditionsComfort  
Time TempWeatherWind HumidityBarometerVisibility
6:00 AM
Apr 21
52 °FClear.3 mph94%30.15 "Hg6 mi
5:00 AM52 °FClear.3 mph94%30.12 "Hg4 mi
4:00 AM52 °FClear.2 mph94%30.12 "Hg4 mi
3:00 AM54 °FClear.2 mph94%30.15 "Hg6 mi
2:00 AM54 °FClear.2 mph88%N/A5 mi
1:00 AM55 °FClear.2 mph82%30.18 "Hg10 mi
12:00 AM59 °FClear.3 mph77%30.18 "Hg10 mi
11:00 PM
Apr 20
61 °FClear.1 mph72%30.21 "Hg10 mi
10:00 PM63 °FClear.2 mph68%30.21 "Hg10 mi
9:00 PM66 °FClear.7 mph52%30.21 "Hg10 mi
8:00 PM66 °FClear.3 mph56%30.18 "Hg10 mi
7:00 PM70 °FClear.3 mph46%30.18 "Hg10 mi
6:00 PM73 °FPassing clouds.5 mph41%30.18 "HgN/A
5:00 PM79 °FPassing clouds.8 mph30%30.18 "HgN/A
4:00 PM81 °FScattered clouds.9 mph26%30.18 "HgN/A
3:00 PM81 °FScattered clouds.8 mph28%30.18 "HgN/A
2:00 PM81 °FScattered clouds.8 mph30%30.21 "HgN/A
1:00 PM79 °FScattered clouds.3 mph37%30.24 "HgN/A
12:00 PM79 °FScattered clouds.5 mph37%30.27 "HgN/A
11:00 AM77 °FPassing clouds.6 mph39%30.30 "HgN/A
10:00 AM73 °FSunny.2 mph44%30.30 "Hg10 mi
9:00 AM66 °FSunny.2 mph64%30.30 "Hg10 mi
8:00 AM59 °FSunny.3 mph82%30.30 "Hg10 mi
7:00 AM52 °FSunny.2 mph94%30.27 "Hg10 mi
Weather by CustomWeather, © 2014

See weather overview